Probability
0 0 0 1 2 1 1 1 1 1 2 2 1 0 0 0 0 0 0 0 0 1 0 0 0 0 0 0 0 0 0 0 1 1 0 0 0 0 1 2 2 1 1
0 0 0 1 2 2 2 2 1 1 1 1 0 0 0 0 0 0 0 0 0 1 0 0 0 0 0 0 0 1 1 1 2 2 1 1 1 0 0 1 1 0 1
0 0 0 1 2 2 2 2 1 1 1 0 0 0 0 0 0 0 0 0 0 0 0 0 0 0 0 0 0 1 2 2 2 2 2 2 1 0 0 0 0 0 0
0 0 0 0 1 2 1 1 1 0 0 0 0 0 0 0 0 0 0 0 0 1 1 0 0 0 0 0 0 1 1 1 1 1 1 1 1 0 0 0 0 0 0
0 0 0 0 1 1 1 0 0 0 0 0 0 0 0 0 0 0 0 0 0 1 2 1 0 0 0 0 0 0 0 0 0 0 0 0 0 0 0 0 0 0 0
1 1 1 0 0 0 0 0 0 0 0 0 0 0 0 0 0 0 0 0 0 1 1 1 0 0 0 0 0 0 0 0 0 0 0 0 0 0 0 0 0 0 0
2 2 2 1 0 0 0 0 0 0 0 0 0 0 0 0 0 0 0 0 0 0 0 0 0 0 0 0 0 0 0 0 0 0 0 0 0 0 0 0 0 0 0
4 3 2 1 0 0 0 0 0 0 0 0 0 0 0 0 0 0 0 0 0 0 0 0 0 0 0 0 0 0 0 0 0 0 0 0 0 0 0 0 0 0 0
4 3 1 0 0 0 0 0 0 0 0 0 0 0 0 0 0 0 0 0 0 0 0 0 0 0 1 1 1 0 0 0 0 0 0 0 0 0 0 0 0 0 0
3 2 1 0 0 0 0 0 0 0 0 0 0 0 0 0 1 1 1 0 0 0 0 0 0 0 1 2 2 0 0 0 0 0 0 0 0 0 0 0 0 0 0
2 1 0 0 0 1 0 0 0 0 0 0 0 0 0 0 1 1 1 0 0 0 0 0 0 0 1 2 2 0 0 0 0 0 0 0 0 0 0 0 0 0 0
1 0 1 1 0 0 0 0 0 0 0 0 0 0 0 0 0 0 0 0 0 0 0 0 0 0 1 2 2 0 0 0 0 0 0 0 0 0 0 0 0 0 0
0 0 1 2 1 0 0 0 1 1 1 1 0 0 0 0 0 0 0 0 0 0 0 0 0 0 1 2 1 0 0 0 0 0 0 0 0 0 0 0 0 0 0
1 0 1 2 2 1 0 1 2 3 2 1 0 0 0 0 0 0 0 0 0 0 0 0 0 0 1 1 1 0 0 0 0 0 0 0 0 0 0 0 0 0 0
2 2 1 2 3 2 2 3 4 4 2 1 0 0 0 0 0 0 0 0 0 0 0 0 0 0 0 0 0 0 0 0 0 0 0 0 0 0 0 0 0 0 0
3 4 3 3 3 4 4 4 5 5 4 2 0 0 0 0 0 0 0 0 0 0 0 0 0 0 0 0 0 0 0 0 0 0 0 0 0 0 0 0 0 0 0
4 4 5 5 5 5 6 5 5 6 5 3 1 0 0 0 0 0 0 0 0 0 0 0 0 0 0 0 0 0 0 0 0 0 0 0 0 0 0 0 0 0 0
4 4 4 5 6 6 6 6 6 6 5 4 2 1 1 0 0 0 1 2 1 1 0 0 0 0 0 0 0 0 0 0 0 0 0 0 0 0 0 0 0 0 0
3 3 3 3 4 4 5 6 6 5 4 3 3 2 1 0 0 1 2 3 3 2 1 0 0 0 0 0 0 0 0 0 0 0 0 0 0 0 0 0 0 0 0
1 1 1 1 1 1 2 4 4 4 3 2 2 2 1 0 0 1 2 3 3 2 1 0 0 0 0 0 0 0 0 0 0 0 0 0 0 0 0 0 0 0 0
0 0 0 0 0 0 1 2 2 2 2 1 1 1 0 0 0 0 1 2 1 1 0 0 0 0 0 0 1 1 0 0 0 0 0 0 0 0 0 0 0 0 0
0 0 0 0 0 0 0 0 0 1 1 1 0 0 1 1 0 0 0 0 0 0 0 0 0 0 0 1 1 1 0 0 0 0 0 0 0 0 0 0 0 0 0
0 0 0 0 0 0 0 0 0 0 0 0 0 0 1 1 1 0 0 0 0 0 0 0 0 0 0 1 1 1 1 0 0 0 0 0 0 0 0 0 0 0 0
0 0 0 0 0 0 0 0 0 0 0 0 0 0 0 1 1 0 0 0 0 0 0 0 0 0 0 0 1 2 2 1 0 0 1 1 0 0 0 0 0 0 0
0 0 0 0 0 0 0 0 0 0 0 0 0 0 0 0 0 0 0 0 0 0 0 0 0 0 0 0 0 1 1 1 0 1 2 2 1 0 0 0 0 0 0
0 0 0 0 0 0 0 0 0 0 0 0 0 0 0 0 0 0 0 0 0 0 0 0 0 0 0 0 0 0 1 0 0 1 2 3 2 1 0 0 0 0 0
Wind_Speed
2 2 2 2 2 1 1 1 2 3 4 5 5 6 5 5 5 5 4 10 12 12 12 12 12 11 11 11 11 11 11 11 11 11 11 10 10 10 9 9 8 8 8
2 2 3 2 1 1 1 2 3 3 3 4 4 4 4 4 4 5 4 6 10 10 11 11 12 12 11 11 11 11 11 11 11 11 11 10 10 10 10 10 9 9 9
2 2 2 2 1 1 2 3 3 3 3 3 4 3 3 3 3 4 4 3 4 7 9 10 11 11 11 10 11 11 11 11 11 11 11 11 11 11 10 10 10 9 9
3 2 2 1 2 2 2 2 2 2 3 3 2 2 2 2 3 2 3 3 3 4 6 8 9 9 10 10 10 10 11 11 11 11 11 11 11 11 10 10 9 9 9
3 3 1 1 2 2 2 2 2 2 2 2 1 1 1 2 2 2 2 3 3 3 3 5 7 7 8 9 9 9 10 10 10 10 10 10 10 10 10 10 9 9 9
3 3 1 2 3 2 2 2 2 2 1 1 1 2 1 1 1 2 2 2 2 3 3 3 3 4 6 7 7 8 8 9 9 8 9 9 9 9 9 9 9 9 9
3 2 1 2 2 2 1 2 2 2 1 1 1 1 1 1 2 1 1 1 2 2 2 2 2 2 3 6 6 6 6 7 7 7 7 8 8 8 8 8 8 8 9
2 2 2 2 2 2 1 1 1 1 1 1 1 1 0 1 1 1 1 1 2 1 1 2 2 3 3 2 4 5 5 5 5 6 6 6 6 7 7 7 7 7 7
1 1 1 2 1 2 1 1 1 1 0 1 1 1 1 0 1 1 0 1 1 1 1 1 2 2 3 3 3 4 5 4 4 5 5 5 5 5 5 6 6 6 6
1 1 1 1 1 1 1 1 1 0 1 1 1 1 0 1 1 0 1 0 1 1 1 1 2 2 3 3 4 6 5 4 4 3 3 4 4 4 4 4 5 5 5
1 1 1 1 1 1 2 1 1 1 1 0 1 1 1 1 1 1 0 1 1 0 1 1 1 2 2 3 3 4 5 4 3 3 3 3 3 3 3 3 4 5 5
1 1 1 1 1 1 1 1 1 1 1 0 1 0 0 0 1 0 1 0 0 1 0 1 1 1 2 3 4 5 5 4 4 3 2 2 2 2 3 4 4 4 4
1 1 1 1 1 1 1 1 1 1 1 1 1 1 0 1 0 0 1 0 0 1 0 0 1 1 2 2 3 5 5 5 3 3 2 2 2 2 2 3 3 3 4
2 2 2 2 1 1 1 1 1 1 1 1 1 1 0 1 0 0 1 1 0 1 1 1 0 1 1 2 3 5 3 4 4 3 3 2 2 2 2 2 2 3 3
1 1 1 1 1 1 1 1 0 0 0 1 1 1 1 1 1 0 1 2 2 1 1 1 0 1 1 2 4 3 2 4 4 4 3 3 2 2 2 2 2 2 3
0 1 1 1 2 1 1 1 1 1 1 1 1 2 1 1 1 0 1 1 2 2 1 1 0 1 1 2 4 2 3 5 4 4 3 3 3 3 3 2 2 2 2
0 0 1 1 1 1 1 1 1 2 2 1 1 1 1 1 1 1 1 1 1 2 1 1 0 1 2 1 1 1 2 2 2 3 4 4 4 3 3 3 3 2 2
0 0 0 0 0 0 0 1 2 1 2 1 1 1 1 0 1 0 1 1 1 1 2 1 1 0 1 1 2 1 1 2 2 3 3 4 5 5 4 4 4 3 3
0 0 1 0 0 0 0 1 1 1 1 1 1 1 1 1 1 1 1 1 1 1 1 1 1 0 0 1 1 1 0 0 1 2 3 3 5 5 5 4 4 4 4
1 0 0 0 0 0 1 1 1 1 1 1 1 2 1 2 2 1 1 1 1 1 1 1 1 1 1 1 1 1 0 1 1 1 1 2 4 5 5 5 5 5 4
1 1 1 0 1 0 1 1 1 2 1 1 2 2 1 1 1 1 1 1 1 1 1 1 1 1 1 1 1 1 1 1 1 1 1 1 2 2 3 4 5 6 6
1 0 1 1 1 1 3 3 2 2 1 1 1 1 1 2 1 2 2 2 2 2 2 2 2 2 3 2 2 1 1 1 2 2 1 1 2 2 3 3 5 7 7
0 0 0 1 1 1 3 3 3 2 1 1 1 1 1 1 1 2 3 3 3 4 4 3 3 4 4 3 3 2 2 2 3 2 1 2 2 3 3 4 7 9 9
0 0 1 1 2 2 3 3 3 2 2 2 1 1 1 1 1 1 1 1 3 3 4 3 4 4 3 3 4 4 4 3 2 2 1 2 2 3 3 2 6 8 8
1 1 1 1 1 1 2 2 3 1 2 2 1 1 1 1 1 2 0 1 2 3 5 5 5 5 4 3 2 1 1 2 2 2 1 2 2 2 2 2 3 7 8
0 0 1 1 1 1 1 1 1 1 1 2 1 1 1 1 1 1 1 2 3 3 3 2 3 3 3 3 2 3 3 3 2 2 2 2 2 1 2 2 2 2 4
Wind_Direction
96 105 96 76 80 85 90 74 64 62 57 47 54 60 66 77 82 82 76 73 71 70 70 70 68 73 72 72 71 71 72 71 71 70 70 71 71 72 72 71 75 78 77
90 96 95 79 79 88 74 74 77 70 70 66 57 60 56 75 90 95 99 82 74 72 70 72 72 72 76 74 73 73 74 73 72 72 72 73 72 72 72 71 72 75 77
101 84 100 97 85 62 68 58 57 69 77 74 65 63 62 50 80 100 108 105 91 79 77 76 75 73 75 77 76 75 75 73 72 72 72 72 71 72 71 71 72 74 75
90 76 79 92 81 61 59 71 56 59 67 67 70 58 69 50 49 62 97 108 110 104 90 86 83 78 77 77 79 80 79 76 73 73 72 72 71 71 70 70 73 75 75
88 86 65 72 71 67 56 59 67 70 78 71 97 86 75 69 51 45 60 87 99 109 113 102 96 89 85 82 79 79 80 80 77 75 74 74 75 73 70 70 72 76 76
69 79 64 69 69 64 50 51 65 62 87 97 75 88 83 104 85 53 53 69 79 96 106 119 120 104 98 90 81 80 81 82 80 78 76 76 77 76 73 71 72 77 77
50 84 78 73 79 82 69 65 71 54 34 46 58 43 24 81 101 95 67 67 77 83 96 107 119 124 112 96 86 83 82 86 85 82 79 77 78 78 77 74 73 76 76
40 62 85 85 87 88 74 61 78 61 358 28 92 86 25 5 356 115 112 98 86 76 71 94 98 103 112 109 94 91 86 87 87 85 86 84 80 78 79 78 77 77 76
67 62 94 101 110 113 124 133 95 93 1 330 20 91 111 201 318 348 128 113 109 78 50 53 80 87 100 104 102 87 83 79 86 82 82 84 83 84 80 79 79 76 75
97 80 104 125 140 128 127 162 135 126 126 310 332 7 37 127 134 301 325 58 119 106 86 70 75 78 88 102 107 99 91 83 84 87 84 85 86 87 86 80 80 77 72
135 132 149 151 162 158 157 161 134 121 125 192 301 332 341 334 257 140 219 302 340 80 127 116 97 88 96 107 110 105 102 95 81 86 92 90 88 84 86 89 87 79 72
154 160 171 166 177 164 159 164 143 135 152 237 282 277 141 349 296 105 154 198 321 298 0 105 102 113 116 114 117 114 117 111 92 80 83 87 84 85 88 84 86 84 75
186 197 171 166 169 169 167 155 137 149 219 232 242 256 262 254 251 146 127 174 339 297 16 53 130 136 135 122 125 133 133 127 111 102 101 100 92 83 86 96 92 87 82
193 199 187 174 161 152 162 144 167 208 215 235 263 263 253 275 269 179 138 129 95 338 0 288 268 146 134 134 147 147 144 140 132 125 118 111 110 105 103 102 112 103 89
181 185 196 167 160 147 148 117 129 227 230 233 243 252 237 250 260 218 144 138 138 163 277 259 256 193 128 119 146 146 142 145 150 144 142 134 131 135 124 108 105 104 96
151 209 218 183 184 191 181 167 172 185 210 240 224 232 238 231 229 184 206 182 145 157 218 262 240 184 138 130 142 148 145 152 158 162 170 172 169 160 153 143 142 128 116
208 242 232 199 207 202 201 185 197 192 210 238 242 223 241 235 192 197 196 171 167 138 163 279 294 115 118 110 104 140 137 148 161 176 187 191 189 184 183 178 175 168 159
197 217 111 95 171 75 271 241 237 219 209 221 232 237 251 198 146 182 178 194 207 185 164 205 262 110 144 164 154 167 162 166 173 190 203 205 194 188 190 190 186 185 185
211 163 100 128 126 79 318 276 246 243 232 233 235 231 227 179 193 197 171 196 221 206 158 156 218 217 187 172 136 167 205 241 215 188 199 194 183 183 190 188 190 195 196
210 141 135 141 140 104 16 1 334 285 255 236 244 241 206 193 195 182 178 197 203 188 194 175 194 202 193 225 143 159 291 289 280 262 190 170 173 189 198 196 198 201 202
234 182 149 81 52 62 4 33 353 326 310 268 235 221 204 132 108 163 170 189 201 198 202 199 200 186 207 187 194 203 210 260 269 249 186 194 165 175 197 209 212 212 210
257 236 185 151 72 26 26 39 25 318 302 304 281 236 212 181 192 187 191 184 181 199 209 206 204 207 218 210 203 204 189 213 271 266 184 228 180 197 208 203 209 209 209
236 221 49 92 104 56 42 31 0 329 305 294 295 304 294 273 200 205 224 219 218 232 222 209 214 224 218 209 196 207 213 211 228 244 195 234 215 214 220 220 209 208 206
56 107 112 93 112 79 52 30 354 314 314 308 315 316 299 300 324 7 264 236 234 233 230 220 223 232 228 218 204 207 216 220 232 250 192 221 231 231 228 221 215 206 206
11 5 45 76 97 82 53 25 5 311 304 301 309 331 320 279 346 23 345 272 272 270 250 232 226 240 254 248 226 181 214 207 239 252 227 208 240 244 245 229 225 213 208
238 338 40 38 97 108 90 68 36 329 310 306 301 295 318 340 13 12 247 250 261 268 290 275 253 254 251 249 241 199 196 210 219 240 236 201 233 218 269 258 220 212 214